Flagstaff, AZ

10:59 AM MST on July 27, 2017 (GMT -0700)
Flagstaff Pulliam

Weather History for KFLG - May, 2014

Change the Weather History Date:

Friday, May 30, 2014

  Actual Average Record
Temperature  
Mean Temperature 59 °F 55 °F  
Max Temperature 78 °F 73 °F 88 °F (2002)
Min Temperature 39 °F 37 °F 18 °F (1918)
Degree Days  
Heating Degree Days 6 10  
Month to date heating degree days 412 406  
Since 1 July heating degree days 6413 6762  
Cooling Degree Days 0 0  
Month to date cooling degree days 0 0  
Year to date cooling degree days 0 0  
Growing Degree Days 8 (Base 50)    
Moisture  
Dew Point 34 °F    
Average Humidity 52    
Maximum Humidity 85    
Minimum Humidity 18    
Precipitation  
Precipitation 0.00 in 0.02 in 0.46 in (1986)
Month to date precipitation 0.12 0.61  
Year to date precipitation 3.21 8.09  
Snow  
Snow 0.00 in 0.00 in T in (1988)
Month to date snowfall 0.4 0.7  
Since 1 July snowfall 44.4 101.7  
Snow Depth 0.00 in    
Sea Level Pressure  
Sea Level Pressure 29.98 in    
Wind  
Wind Speed 5 mph (SW)    
Max Wind Speed 22 mph    
Max Gust Speed 26 mph    
Visibility 10 miles    
Events      
T = Trace of Precipitation, MM = Missing Value Source: NWS Daily Summary

Daily Weather History Graph

Daily Weather History Graph

Search for Another Location

Airport or City:

Trip Planner

Search our weather history database for the weather conditions in past years. The results will help you decide how hot, cold, wet, or windy it might be!

Date:

Astronomy

May. 30, 2014 Rise Set
Actual Time 5:14 AM MST 7:34 PM MST
Civil Twilight 4:45 AM MST 8:03 PM MST
Nautical Twilight 4:09 AM MST 8:39 PM MST
Astronomical Twilight 3:30 AM MST 9:18 PM MST
Moon 6:59 AM MST (5/30) 9:16 PM MST (5/30)
Length of Visible Light 15h 18m
Length of Day
14h 20m
Waxing Crescent, 4% of the Moon is Illuminated
May 30
Waxing Crescent
Jun 5
First Quarter
Jun 12
Full
Jun 19
Last Quarter
Jun 27
New

Hourly Weather History & Observations

Time (MST) Temp. Dew Point Humidity Pressure Visibility Wind Dir Wind Speed Gust Speed Precip Events Conditions
12:57 AM 42.1 °F 37.0 °F 82% 30.06 in 10.0 mi Calm Calm - N/A   Clear
1:57 AM 42.1 °F 37.0 °F 82% 30.04 in 10.0 mi Calm Calm - N/A   Clear
2:57 AM 41.0 °F 36.0 °F 82% 30.02 in 10.0 mi Calm Calm - N/A   Clear
3:57 AM 39.9 °F 36.0 °F 86% 30.00 in 10.0 mi Calm Calm - N/A   Clear
4:57 AM 39.9 °F 36.0 °F 86% 30.00 in 10.0 mi Calm Calm - N/A   Clear
5:57 AM 42.1 °F 37.9 °F 85% 30.01 in 10.0 mi Calm Calm - N/A   Clear
6:57 AM 54.0 °F 43.0 °F 66% 29.97 in 10.0 mi Calm Calm - N/A   Clear
7:57 AM 64.0 °F 39.0 °F 40% 29.97 in 10.0 mi SW 4.6 mph - N/A   Clear
8:57 AM 68.0 °F 39.9 °F 36% 29.99 in 10.0 mi South 8.1 mph - N/A   Clear
9:57 AM 70.0 °F 35.1 °F 28% 29.99 in 10.0 mi SSW 12.7 mph 17.3 mph N/A   Clear
10:57 AM 71.1 °F 35.1 °F 27% 29.99 in 10.0 mi Variable 5.8 mph - N/A   Clear
11:57 AM 73.9 °F 33.1 °F 22% 29.97 in 10.0 mi WSW 8.1 mph 20.7 mph N/A   Clear
12:57 PM 73.9 °F 30.0 °F 20% 29.97 in 10.0 mi SW 9.2 mph - N/A   Clear
1:57 PM 75.2 °F 28.4 °F 18% 30.20 in 10.0 mi WSW 8.1 mph 20.7 mph N/A   Clear
2:57 PM 77.0 °F 30.9 °F 19% 29.94 in 10.0 mi WSW 10.4 mph 20.7 mph N/A   Partly Cloudy
3:57 PM 75.0 °F 32.0 °F 21% 29.93 in 10.0 mi North - - N/A   Partly Cloudy
4:57 PM 75.9 °F 32.0 °F 20% 29.93 in 10.0 mi SSW 15.0 mph 24.2 mph N/A   Clear
5:57 PM 73.9 °F 33.1 °F 22% 29.92 in 10.0 mi SW 12.7 mph - N/A   Clear
6:57 PM 72.0 °F 32.0 °F 23% 29.88 in 10.0 mi SW 10.4 mph - N/A   Clear
7:57 PM 66.0 °F 33.1 °F 29% 29.88 in 10.0 mi SW 4.6 mph - N/A   Clear
8:57 PM 59.0 °F 30.9 °F 35% 29.91 in 10.0 mi South 3.5 mph - N/A   Clear
9:57 PM 55.0 °F 30.9 °F 40% 29.94 in 10.0 mi Calm Calm - N/A   Clear
10:57 PM 48.9 °F 30.0 °F 48% 29.95 in 10.0 mi Calm Calm - N/A   Clear
11:57 PM 46.9 °F 28.0 °F 48% 29.94 in 10.0 mi Calm Calm - N/A   Clear